Regional Weather Roundup
Issued by NWS Tiyan, Guam

Home | Current Version | Previous Version | Text Only | Print | Product List | Glossary On
Versions: 1 2 3 4 5 6 7 8 9 10 11 12 13 14 15 16 17 18 19 20 21 22 23 24 25 26 27 28 29 30 31 32 33 34 35 36 37 38 39 40 41 42 43 44 45 46 47 48 49 50
000
ASGM40 PGUM 210312
RWRGUM
WEATHER ROUNDUP FOR THE MARIANAS
NATIONAL WEATHER SERVICE TIYAN GU
100 PM CHST SUN SEP 21 2014

GUZ001>004-210400-
MARIANA ISLANDS-

CITY           SKY/WX    TMP DP  RH WIND       PRES   REMARKS
GUAM AIRPORT   PTSUNNY   88  81  79 N10       29.80F HX 105
ANDERSEN AFB   MOSUNNY   86  73  66 N8        29.80  HX  93
ROTA AIRPORT   RAIN      84  79  84 NE10      29.83F HX  96
TINIAN AP      PTSUNNY   86  79  79 E16       29.79F HX  99
SAIPAN AP      PTSUNNY   86  79  79 E14       29.80F HX  99

$$



USA.gov is the U.S. government's official web portal to all federal, state and local government web resources and services.